Muncie, IN

6:14 AM EDT on September 26, 2017 (GMT -0400)
Delaware County-Johnson

Weather History for KMIE - May, 2014

Change the Weather History Date:

Wednesday, May 14, 2014

  Actual Average Record
Temperature  
Mean Temperature 55 °F 61 °F  
Max Temperature 57 °F 71 °F 87 °F (1998)
Min Temperature 53 °F 51 °F 38 °F (1973)
Degree Days  
Heating Degree Days 10 6  
Month to date heating degree days 74 101  
Since 1 July heating degree days 6333 5693  
Cooling Degree Days 0 2  
Month to date cooling degree days 39 18  
Year to date cooling degree days 45 33  
Growing Degree Days 5 (Base 50)    
Moisture  
Dew Point 53 °F    
Average Humidity 90    
Maximum Humidity 93    
Minimum Humidity 86    
Precipitation  
Precipitation 1.17 in 0.15 in 1.17 in (2014)
Month to date precipitation 3.19 1.82  
Year to date precipitation 13.82 12.98  
Sea Level Pressure  
Sea Level Pressure 30.02 in    
Wind  
Wind Speed 9 mph (NNE)    
Max Wind Speed 25 mph    
Max Gust Speed 28 mph    
Visibility 4 miles    
Events Rain    
T = Trace of Precipitation, MM = Missing Value Source: NWS Daily Summary

Daily Weather History Graph

Daily Weather History Graph

Search for Another Location

Airport or City:

Trip Planner

Search our weather history database for the weather conditions in past years. The results will help you decide how hot, cold, wet, or windy it might be!

Date:

Astronomy

May. 14, 2014 Rise Set
Actual Time 6:26 AM EDT 8:49 PM EDT
Civil Twilight 5:56 AM EDT 9:20 PM EDT
Nautical Twilight 5:18 AM EDT 9:58 PM EDT
Astronomical Twilight 4:36 AM EDT 10:40 PM EDT
Moon 8:54 PM EDT (5/14) 6:24 AM EDT (5/14)
Length of Visible Light 15h 24m
Length of Day
14h 23m
Full, 100% of the Moon is Illuminated
May 14
Full
May 14
Full
May 21
Last Quarter
May 28
New
Jun 5
First Quarter

Hourly Weather History & Observations

Time (EDT) Temp. Dew Point Humidity Pressure Visibility Wind Dir Wind Speed Gust Speed Precip Events Conditions
12:03 AM 57.9 °F 55.9 °F 93% 30.11 in 9.0 mi WNW 9.2 mph - 0.00 in   Overcast
12:38 AM 57.0 °F 54.0 °F 89% 30.11 in 10.0 mi WNW 10.4 mph - 0.00 in   Overcast
12:53 AM 57.0 °F 54.0 °F 89% 30.09 in 9.0 mi NW 8.1 mph - 0.00 in   Overcast
12:57 AM 57.0 °F 54.0 °F 89% 30.11 in 8.0 mi WNW 8.1 mph - N/A   Overcast
1:53 AM 55.9 °F 53.1 °F 90% 30.11 in 5.0 mi NW 11.5 mph - N/A   Overcast
2:06 AM 55.9 °F 53.1 °F 90% 30.12 in 7.0 mi North - - N/A   Overcast
2:33 AM 55.0 °F 53.1 °F 93% 30.12 in 6.0 mi WNW 8.1 mph - N/A   Overcast
2:53 AM 55.0 °F 53.1 °F 93% 30.09 in 7.0 mi NW 6.9 mph - 0.00 in Rain Light Rain
3:01 AM 55.0 °F 53.1 °F 93% 30.11 in 6.0 mi NW 8.1 mph - 0.00 in Rain Light Rain
3:09 AM 55.0 °F 52.0 °F 89% 30.11 in 5.0 mi NW 8.1 mph - 0.01 in Rain Light Rain
3:20 AM 55.0 °F 52.0 °F 89% 30.11 in 4.0 mi NNW 11.5 mph - 0.02 in Rain Rain
3:32 AM 55.0 °F 52.0 °F 89% 30.12 in 6.0 mi NNW 9.2 mph - 0.03 in Rain Light Rain
3:42 AM 55.0 °F 52.0 °F 89% 30.12 in 7.0 mi NNW 8.1 mph - 0.03 in   Overcast
3:53 AM 54.0 °F 52.0 °F 93% 30.10 in 6.0 mi NW 8.1 mph - 0.03 in   Overcast
4:18 AM 54.0 °F 52.0 °F 93% 30.12 in 7.0 mi NNW 10.4 mph - N/A   Overcast
4:53 AM 54.0 °F 52.0 °F 93% 30.10 in 6.0 mi NNE 3.5 mph - N/A   Overcast
5:53 AM 55.0 °F 52.0 °F 89% 30.10 in 4.0 mi Variable 4.6 mph - N/A   Overcast
6:53 AM 54.0 °F 52.0 °F 93% 30.10 in 4.0 mi North 5.8 mph - N/A   Overcast
7:45 AM 55.0 °F 52.0 °F 89% 30.12 in 2.5 mi North 8.1 mph - N/A   Overcast
7:53 AM 55.0 °F 52.0 °F 89% 30.11 in 2.5 mi North 8.1 mph - N/A   Overcast
8:17 AM 54.0 °F 52.0 °F 93% 30.13 in 1.5 mi North 6.9 mph - 0.03 in Rain Rain
8:39 AM 55.0 °F 52.0 °F 89% 30.11 in 2.5 mi NNE 8.1 mph - 0.05 in   Overcast
8:53 AM 55.0 °F 53.1 °F 93% 30.11 in 2.5 mi NE 6.9 mph - 0.05 in   Overcast
9:10 AM 55.0 °F 52.0 °F 89% 30.11 in 3.0 mi NE 9.2 mph - 0.01 in   Overcast
9:24 AM 55.0 °F 52.0 °F 89% 30.11 in 3.0 mi NNE 8.1 mph - 0.01 in   Overcast
9:53 AM 55.9 °F 52.0 °F 87% 30.11 in 4.0 mi NNE 6.9 mph - 0.01 in Rain Light Rain
10:46 AM 55.0 °F 52.0 °F 89% 30.12 in 4.0 mi North 8.1 mph - 0.01 in Rain Light Rain
11:11 AM 55.0 °F 52.0 °F 89% 30.12 in 1.5 mi NNE 9.2 mph - 0.08 in Rain Rain
11:24 AM 55.0 °F 52.0 °F 89% 30.12 in 2.0 mi NNE 9.2 mph - 0.11 in Rain Rain
11:53 AM 55.0 °F 52.0 °F 89% 30.08 in 2.0 mi NNE 12.7 mph - 0.17 in Rain Rain
12:07 PM 55.0 °F 53.1 °F 93% 30.08 in 3.0 mi North 13.8 mph - 0.01 in Rain Light Rain
12:27 PM 55.0 °F 52.0 °F 89% 30.08 in 4.0 mi NNE 12.7 mph - 0.02 in Rain Light Rain
12:53 PM 55.9 °F 53.1 °F 90% 30.05 in 4.0 mi NE 13.8 mph - 0.04 in Rain Light Rain
1:22 PM 55.9 °F 53.1 °F 90% 30.05 in 4.0 mi NE 11.5 mph - 0.03 in Rain Light Rain
1:37 PM 55.0 °F 53.1 °F 93% 30.04 in 2.5 mi NE 12.7 mph - 0.06 in Rain Light Rain
1:43 PM 55.0 °F 53.1 °F 93% 30.04 in 3.0 mi ENE 11.5 mph - 0.07 in Rain Light Rain
1:48 PM 55.4 °F 53.6 °F 94% 30.04 in 2.0 mi ENE 8.1 mph - 0.09 in Rain Rain
1:53 PM 55.0 °F 53.1 °F 93% 30.03 in 2.0 mi ENE 11.5 mph - 0.10 in Rain Light Rain
1:57 PM 55.9 °F 53.1 °F 90% 30.03 in 3.0 mi ENE 11.5 mph - 0.00 in Rain Light Rain
2:53 PM 57.0 °F 54.0 °F 89% 30.01 in 9.0 mi North 6.9 mph - 0.01 in   Overcast
3:14 PM 55.9 °F 54.0 °F 93% 30.02 in 1.8 mi North 9.2 mph - 0.01 in Rain Rain
3:28 PM 55.9 °F 54.0 °F 93% 30.01 in 3.0 mi North 9.2 mph - 0.02 in Rain Light Rain
3:53 PM 55.9 °F 54.0 °F 93% 30.00 in 3.0 mi North 9.2 mph - 0.03 in Rain Light Rain
4:20 PM 57.0 °F 55.0 °F 93% 29.99 in 2.5 mi North 11.5 mph - 0.01 in Rain Light Rain
5:19 PM 55.9 °F 54.0 °F 93% 29.96 in 3.0 mi NNE 13.8 mph - 0.00 in Rain Light Rain
5:53 PM 55.9 °F 54.0 °F 93% 29.94 in 5.0 mi NNE 13.8 mph - 0.00 in   Overcast
6:05 PM 55.9 °F 54.0 °F 93% 29.95 in 2.5 mi NNE 11.5 mph - N/A   Overcast
6:36 PM 54.0 °F 52.0 °F 93% 29.94 in 1.5 mi NNE 15.0 mph 19.6 mph 0.03 in Rain Rain
6:45 PM 54.0 °F 52.0 °F 93% 29.93 in 2.0 mi NNE 15.0 mph - 0.06 in Rain Rain
6:53 PM 54.0 °F 52.0 °F 93% 29.92 in 2.5 mi NE 16.1 mph - 0.07 in Rain Light Rain
7:14 PM 54.0 °F 52.0 °F 93% 29.91 in 7.0 mi NE 15.0 mph - 0.02 in Rain Light Rain
7:30 PM 54.0 °F 52.0 °F 93% 29.90 in 2.0 mi ENE 13.8 mph - 0.06 in Rain Rain
7:38 PM 54.0 °F 52.0 °F 93% 29.89 in 1.2 mi NE 15.0 mph - 0.11 in Rain Heavy Rain
7:48 PM 53.6 °F 51.8 °F 94% 29.88 in 3.0 mi NE 16.1 mph - 0.13 in Rain Light Rain
7:53 PM 54.0 °F 52.0 °F 93% 29.87 in 4.0 mi ENE 18.4 mph - 0.13 in Rain Light Rain
8:53 PM 55.0 °F 53.1 °F 93% 29.87 in 8.0 mi East 12.7 mph - 0.06 in Rain Light Rain
9:37 PM 54.0 °F 53.1 °F 97% 29.89 in 2.5 mi NNW 10.4 mph - 0.11 in Rain Rain
9:42 PM 54.0 °F 52.0 °F 93% 29.89 in 4.0 mi NNW 12.7 mph - 0.12 in Rain Rain
9:53 PM 54.0 °F 52.0 °F 93% 29.87 in 6.0 mi North 16.1 mph - 0.14 in Rain Light Rain
10:15 PM 53.1 °F 52.0 °F 96% 29.88 in 2.5 mi Variable 5.8 mph 21.9 mph 0.08 in Rain Rain
10:22 PM 53.1 °F 52.0 °F 96% 29.89 in 3.0 mi North 16.1 mph - 0.09 in Rain Rain
11:00 PM 53.1 °F 52.0 °F 96% 29.85 in 4.0 mi NE 8.1 mph - 0.02 in Rain Light Rain
11:12 PM 53.1 °F 52.0 °F 96% 29.84 in 3.0 mi NE 9.2 mph - 0.05 in Rain Rain
11:22 PM 53.1 °F 52.0 °F 96% 29.84 in 5.0 mi NNE 9.2 mph - 0.06 in Rain Light Rain
11:46 PM 53.1 °F 52.0 °F 96% 29.83 in 10.0 mi NNE 6.9 mph - 0.07 in   Overcast
11:53 PM 53.1 °F 52.0 °F 96% 29.82 in 8.0 mi North 3.5 mph - 0.07 in Rain Light Rain